Location: Seattle
(47.6064°N, 122.3308°W)
Time: 02:08:41
(UTC-08:00)

A-11 Canister half - Pass Details

Date: 04 December 2020
Orbit: 1524 x 1684 km, 47.3° (Epoch: 21 January)

Event Time Altitude Azimuth Distance (km) Brightness Sun altitude
Rises 04:52:34 0° 233° (SW) 4,925 - -27.4°
Reaches altitude 10° 04:55:45 10° 230° (SW) 3,942 - -26.9°
Exits shadow 04:59:04 24° 225° (SW) 2,977 10.1 -26.4°
Maximum altitude 05:05:43 64° 152° (SSE) 1,832 9.4 -25.2°
Drops below altitude 10° 05:15:34 10° 75° (ENE) 3,902 12.0 -23.6°
Sets 05:18:43 0° 72° (ENE) 4,873 12.7 -23.1°
